Year,Month,Day,Hour,Minute,Value (Times are PST for temperature in C)
2015,04,17,08,37,12.20
2015,04,17,08,38,12.20
2015,04,17,08,39,12.20
2015,04,17,08,40,12.20
2015,04,17,08,41,12.20
2015,04,17,08,42,12.10
2015,04,17,08,43,12.10
2015,04,17,08,44,12.10
2015,04,17,08,45,12.10
2015,04,17,08,46,12.10
2015,04,17,08,47,12.00
2015,04,17,08,48,12.00
2015,04,17,08,49,12.00
2015,04,17,08,50,12.00
2015,04,17,08,51,12.10
2015,04,17,08,52,12.10
2015,04,17,08,53,12.10
2015,04,17,08,54,12.10
2015,04,17,08,55,12.10
2015,04,17,08,56,12.10
2015,04,17,08,57,12.10
2015,04,17,08,58,12.10
2015,04,17,08,59,12.10
2015,04,17,09,00,12.10
2015,04,17,09,01,12.30
2015,04,17,09,02,12.30
2015,04,17,09,03,12.30
2015,04,17,09,04,12.30
2015,04,17,09,05,12.30
2015,04,17,09,06,12.40
2015,04,17,09,07,12.40
2015,04,17,09,08,12.40
2015,04,17,09,09,12.40
2015,04,17,09,10,12.40
2015,04,17,09,11,12.40
2015,04,17,09,12,12.40
2015,04,17,09,13,12.40
2015,04,17,09,14,12.40
2015,04,17,09,15,12.40
2015,04,17,09,16,12.40
2015,04,17,09,17,12.50
2015,04,17,09,18,12.80
2015,04,17,09,19,12.80
2015,04,17,09,20,12.80
2015,04,17,09,21,12.80
2015,04,17,09,22,12.80
2015,04,17,09,23,12.80
2015,04,17,09,24,12.80
2015,04,17,09,25,12.80
2015,04,17,09,26,12.80
2015,04,17,09,27,12.80
2015,04,17,09,28,12.80
2015,04,17,13,24,13.80
2015,04,17,13,25,13.80
2015,04,17,13,26,13.80
2015,04,17,13,27,13.80
2015,04,17,13,28,13.90
2015,04,17,13,29,13.90
2015,04,17,13,30,14.00
2015,04,17,13,31,14.10
2015,04,17,13,32,14.20
2015,04,17,13,33,14.30
2015,04,17,13,34,14.30
2015,04,17,13,35,14.20
2015,04,17,13,36,14.10
2015,04,17,13,37,14.10
2015,04,17,13,38,14.10
2015,04,17,13,39,14.10
2015,04,17,13,40,14.20
2015,04,17,13,41,14.20
2015,04,17,13,42,14.20
2015,04,17,13,43,14.20
2015,04,17,13,44,14.20
2015,04,17,13,45,14.30
2015,04,17,13,46,14.30
2015,04,17,13,47,14.40
2015,04,17,13,48,14.40
2015,04,17,13,49,14.40
2015,04,17,13,50,14.40
2015,04,17,13,51,14.40
2015,04,17,13,52,14.40
2015,04,17,13,53,14.40
2015,04,17,13,54,14.40
2015,04,17,13,55,14.40
2015,04,17,13,56,14.40
2015,04,17,13,57,14.50
2015,04,17,13,58,14.50
2015,04,17,13,59,14.60
2015,04,17,14,00,14.60
2015,04,17,14,01,14.60
2015,04,17,14,02,14.60
2015,04,17,14,03,14.70
2015,04,17,14,04,14.70
2015,04,17,14,05,14.70
2015,04,17,14,06,14.80
2015,04,17,14,07,14.80
2015,04,17,14,08,14.90
2015,04,17,14,09,14.90
2015,04,17,14,10,14.80
2015,04,17,14,11,14.90
2015,04,17,14,12,14.90
2015,04,17,14,13,14.90
2015,04,17,14,14,15.00
2015,04,17,14,15,15.00
2015,04,17,14,16,15.00
2015,04,17,14,17,15.00
2015,04,17,14,18,15.00
2015,04,17,14,19,15.00
2015,04,17,14,20,15.00
2015,04,17,14,21,15.00
2015,04,17,14,22,15.00
2015,04,17,14,23,15.00
2015,04,17,14,24,15.00
2015,04,17,14,25,15.00
2015,04,17,14,26,15.00
2015,04,17,14,27,15.00
2015,04,17,14,28,15.00
2015,04,17,14,29,15.00
2015,04,17,14,30,15.00
2015,04,17,14,31,15.00
2015,04,17,14,32,15.00
2015,04,17,14,33,15.00
2015,04,17,14,34,15.00
2015,04,17,14,35,15.10
2015,04,17,14,36,15.00
2015,04,17,14,37,15.00
2015,04,17,14,38,15.00
2015,04,17,14,39,15.00
2015,04,17,14,40,15.00
2015,04,17,14,41,15.00
2015,04,17,14,42,15.00
2015,04,17,14,43,15.00
2015,04,17,14,44,15.00
2015,04,17,14,45,15.00
2015,04,17,14,46,15.00
2015,04,17,14,47,15.00
2015,04,17,14,48,15.00
2015,04,17,14,49,15.00
2015,04,17,14,50,15.00
2015,04,17,14,51,15.00
2015,04,17,14,52,15.00
2015,04,17,14,53,15.00
2015,04,17,14,54,15.00
2015,04,17,14,55,15.00
2015,04,17,14,56,15.00
2015,04,17,14,57,15.00
2015,04,17,14,58,15.00
2015,04,17,14,59,15.00
2015,04,17,15,00,15.00
2015,04,17,15,01,15.00
2015,04,17,15,02,15.00
2015,04,17,15,03,15.00
2015,04,17,15,04,15.00
2015,04,17,15,05,15.00
2015,04,17,15,06,15.00
2015,04,17,15,07,15.00
2015,04,17,15,08,15.00
2015,04,17,15,09,15.00
2015,04,17,15,10,15.00
2015,04,17,15,11,15.00
2015,04,17,15,12,15.10
2015,04,17,15,13,15.20
2015,04,17,15,14,15.30
2015,04,17,15,15,15.40
2015,04,17,15,16,15.40
2015,04,17,15,17,15.40
2015,04,17,15,18,15.40
2015,04,17,15,19,15.40
2015,04,17,15,20,15.40
2015,04,17,15,21,15.20
2015,04,17,15,22,15.10
2015,04,17,15,23,15.10
2015,04,17,15,24,15.10
2015,04,17,15,25,15.20
2015,04,17,15,26,15.20
2015,04,17,15,27,15.30
2015,04,17,15,28,15.30
2015,04,17,15,29,15.30
2015,04,17,15,30,15.30
2015,04,17,15,31,15.30
2015,04,17,15,32,15.40
2015,04,17,15,33,15.30
2015,04,17,15,34,15.30
2015,04,17,15,35,15.30
2015,04,17,15,36,15.30
2015,04,17,15,37,15.40
2015,04,17,15,38,15.40
2015,04,17,15,39,15.40
2015,04,17,15,40,15.40
2015,04,17,15,41,15.50
2015,04,17,15,42,15.40
2015,04,17,15,43,15.40
2015,04,17,15,44,15.40
2015,04,17,15,45,15.50
2015,04,17,15,46,15.60
2015,04,17,15,47,15.50
2015,04,17,15,48,15.50
2015,04,17,15,49,15.40
2015,04,17,15,50,15.40
2015,04,17,15,51,15.40
2015,04,17,15,52,15.40
2015,04,17,15,53,15.40
2015,04,17,15,54,15.40
2015,04,17,15,55,15.40
2015,04,17,15,56,15.30
2015,04,17,15,57,15.30
2015,04,17,15,58,15.30
2015,04,17,15,59,15.30
2015,04,17,16,00,15.40
2015,04,17,16,01,15.50
2015,04,17,16,02,15.60
2015,04,17,16,03,15.60
2015,04,17,16,04,15.70
2015,04,17,16,05,15.60
2015,04,17,16,06,15.60
2015,04,17,16,07,15.50
2015,04,17,16,08,15.40
2015,04,17,16,09,15.30
2015,04,17,16,10,15.30
2015,04,17,16,11,15.30
2015,04,17,16,12,15.30
2015,04,17,16,13,15.30
2015,04,17,16,14,15.30
2015,04,17,16,15,15.30
2015,04,17,16,16,15.30
2015,04,17,16,17,15.30
2015,04,17,16,18,15.30
2015,04,17,16,19,15.40
2015,04,17,16,20,15.40
2015,04,17,16,21,15.50
2015,04,17,16,22,15.40
2015,04,17,16,23,15.50
2015,04,17,16,24,15.50
2015,04,17,16,25,15.60
2015,04,17,16,26,15.50
2015,04,17,16,27,15.40
2015,04,17,16,28,15.40
2015,04,17,16,29,15.40
2015,04,17,16,30,15.40
2015,04,17,16,31,15.40
2015,04,17,16,32,15.50
2015,04,17,16,33,15.50
2015,04,17,16,34,15.60
2015,04,17,16,35,15.60
2015,04,17,16,36,15.60
2015,04,17,16,37,15.60
2015,04,17,16,38,15.70
2015,04,17,16,39,15.60
2015,04,17,16,40,15.60
2015,04,17,16,41,15.50
2015,04,17,16,42,15.50
2015,04,17,16,43,15.50
2015,04,17,16,44,15.50
2015,04,17,16,45,15.50
2015,04,17,16,46,15.50
2015,04,17,16,47,15.50
2015,04,17,16,48,15.60
2015,04,17,16,49,15.50
2015,04,17,16,50,15.40
2015,04,17,16,51,15.40
2015,04,17,16,52,15.40
2015,04,17,16,53,15.40
2015,04,17,16,54,15.40
2015,04,17,16,55,15.40
2015,04,17,16,56,15.40
2015,04,17,16,57,15.50
2015,04,17,16,58,15.50
2015,04,17,16,59,15.60
2015,04,17,17,00,15.60
2015,04,17,17,01,15.60
2015,04,17,17,02,15.60
2015,04,17,17,03,15.60
2015,04,17,17,04,15.60
2015,04,17,17,05,15.60
2015,04,17,17,06,15.60
2015,04,17,17,07,15.50
2015,04,17,17,08,15.50
2015,04,17,17,09,15.40
2015,04,17,17,10,15.40
2015,04,17,17,11,15.40
2015,04,17,17,12,15.40
2015,04,17,17,13,15.30
2015,04,17,17,14,15.30
2015,04,17,17,15,15.30
2015,04,17,17,16,15.30
2015,04,17,17,17,15.20
2015,04,17,17,18,15.10
2015,04,17,17,19,15.10
2015,04,17,17,20,15.10
2015,04,17,17,21,15.10
2015,04,17,17,22,15.20
2015,04,17,17,23,15.10
2015,04,17,17,24,15.00
2015,04,17,17,25,15.00
2015,04,17,17,26,15.00
2015,04,17,17,27,15.00
2015,04,17,17,28,15.00
2015,04,17,17,29,15.00
2015,04,17,17,30,15.00
2015,04,17,17,31,15.00
2015,04,17,17,32,15.00
2015,04,17,17,33,15.00
2015,04,17,17,34,15.00
2015,04,17,17,35,15.00
2015,04,17,17,36,15.00
2015,04,17,17,37,15.00
2015,04,17,17,38,15.00
2015,04,17,17,39,15.00
2015,04,17,17,40,15.00
2015,04,17,17,41,15.00
2015,04,17,17,42,15.00
2015,04,17,17,43,15.00
